Location: St. Louis
(38.6270°N, 90.1994°W)
Time: 11:08:29
(UTC-06:00)

Altair - Pass Details

Date: 05 December 2021
Orbit: 1501 x 1683 km, 47.2° (Epoch: 25 January)

Event Time Altitude Azimuth Distance (km) Brightness Sun altitude
Rises 14:43:10 0° 231° (SW) 4,821 11.8 16.9°
Reaches altitude 10° 14:46:18 10° 230° (SW) 3,813 12.0 16.5°
Maximum altitude 14:55:58 80° 145° (SE) 1,583 7.9 15.2°
Drops below altitude 10° 15:05:17 10° 61° (ENE) 3,689 9.0 13.9°
Sets 15:08:17 0° 60° (ENE) 4,658 9.4 13.5°
